Simultaneous Nadir Overpasses (SNOs) Predictions

Prediction of SNOs between GOES-17 and NPP Satellite Orbit:

Table of predicted SNOs for the next 14.0 days since TLE Epoch: 11/11/2023
Index Date Time (GOES-17) GOES-17 Lat,Lon NPP Lat,Lon Distance(km) Time Diff (sec)
1 11/12/2023 08:27:18 -0.00,-104.68 0.07,-105.08 45.26 80
2 11/13/2023 08:05:53 -0.00,-104.68 -0.90,-100.54 470.92 80
3 11/14/2023 20:27:49 0.00,-104.65 -0.28,-105.85 136.55 80
4 11/15/2023 20:11:44 -0.00,-104.65 0.75,-101.32 379.64 80
5 11/17/2023 08:33:32 0.01,-104.67 0.44,-106.59 218.74 80
6 11/18/2023 08:12:07 0.01,-104.67 -0.59,-102.06 297.12 80
7 11/19/2023 20:34:02 -0.01,-104.63 -0.64,-107.36 311.05 80
8 11/20/2023 20:17:58 -0.01,-104.63 0.40,-102.83 205.16 80
9 11/22/2023 08:39:45 0.01,-104.66 0.78,-108.10 392.50 80
10 11/23/2023 08:18:20 0.01,-104.66 -0.20,-103.56 123.77 80
11 11/24/2023 20:40:16 -0.02,-104.62 -0.96,-108.87 484.18 80
